Location: Siloam Springs
(36.1881°N, 94.5403°W)
Time: 14:23:19
(UTC-05:00)

RS-15 - Pass Details

Date: 30 May 2024
Orbit: 1896 x 2148 km, 64.8° (Epoch: 19 June)

Event Time Altitude Azimuth Distance (km) Brightness Sun altitude
Rises 21:32:22 0° 329° (NNW) 5,396 11.8 -11.5°
Reaches altitude 10° 21:36:44 10° 342° (NNW) 4,360 10.8 -12.2°
Maximum altitude 21:45:28 25° 35° (NE) 3,231 9.2 -13.5°
Drops below altitude 10° 21:54:01 10° 88° (E) 4,280 9.4 -14.8°
Enters shadow 21:55:38 - 94° (E) 4,646 9.5 -15.0°
